Hutchinson, MN

6:56 PM CDT on July 21, 2017 (GMT -0500)
Hutchinson Municipal-Butler

Weather History for KHCD - September, 2012

Change the Weather History Date:

Wednesday, September 5, 2012

  Actual Average Record
Temperature  
Mean Temperature 66 °F -  
Max Temperature 79 °F 78 °F 93 °F (1960)
Min Temperature 54 °F 54 °F 36 °F (1962)
Cooling Degree Days 2    
Growing Degree Days 16 (Base 50)    
Moisture  
Dew Point 54 °F    
Average Humidity 67    
Maximum Humidity 98    
Minimum Humidity 32    
Precipitation  
Precipitation 0.00 in - - ()
Sea Level Pressure  
Sea Level Pressure 29.86 in    
Wind  
Wind Speed 6 mph (WNW)    
Max Wind Speed 16 mph    
Max Gust Speed 26 mph    
Visibility 10 miles    
Events Rain    
Averages and records for this station are not official NWS values.
T = Trace of Precipitation, MM = Missing Value Source: NWS Daily Summary

Daily Weather History Graph

Daily Weather History Graph

Search for Another Location

Airport or City:

Trip Planner

Search our weather history database for the weather conditions in past years. The results will help you decide how hot, cold, wet, or windy it might be!

Date:

Astronomy

Sep. 05, 2012 Rise Set
Actual Time 6:45 AM CDT 7:46 PM CDT
Civil Twilight 6:15 AM CDT 8:15 PM CDT
Nautical Twilight 5:39 AM CDT 8:51 PM CDT
Astronomical Twilight 5:01 AM CDT 9:29 PM CDT
Moon 9:59 PM CDT (9/5) 12:05 PM CDT (9/5)
Length of Visible Light 14h 00m
Length of Day
13h 01m
Waning Gibbous, 76% of the Moon is Illuminated
Sep 5
Waning Gibbous
Sep 8
Last Quarter
Sep 15
New
Sep 22
First Quarter
Sep 29
Full

Hourly Weather History & Observations

Time (CDT) Temp. Dew Point Humidity Pressure Visibility Wind Dir Wind Speed Gust Speed Precip Events Conditions
12:09 AM 74.1 °F 58.3 °F 58% 29.88 in 10.0 mi WSW 9.2 mph - N/A Rain Light Rain
12:29 AM 69.3 °F 57.4 °F 66% 29.83 in 10.0 mi SSE 6.9 mph - N/A Rain Rain
12:49 AM 64.4 °F 58.1 °F 80% 29.74 in 10.0 mi SE 5.8 mph - 0.01 in Rain Light Rain
1:09 AM 62.2 °F 58.3 °F 87% 29.73 in 10.0 mi SE 9.2 mph - N/A   Clear
1:29 AM 61.9 °F 59.0 °F 90% 29.74 in 10.0 mi SSE 5.8 mph - N/A   Clear
1:49 AM 62.2 °F 59.0 °F 89% 29.76 in 10.0 mi SSE 6.9 mph - N/A   Clear
2:09 AM 63.1 °F 59.0 °F 86% 29.77 in 10.0 mi SE 3.5 mph - N/A   Clear
2:27 AM 61.7 °F 58.5 °F 89% 29.78 in 10.0 mi Calm Calm - N/A   Clear
2:49 AM 60.3 °F 58.6 °F 94% 29.80 in 10.0 mi West 4.6 mph - N/A   Clear
3:09 AM 59.5 °F 58.3 °F 96% 29.81 in 10.0 mi WNW 3.5 mph - N/A   Clear
3:29 AM 60.1 °F 57.9 °F 93% 29.80 in 10.0 mi NW 3.5 mph - N/A   Clear
3:49 AM 59.2 °F 57.7 °F 95% 29.81 in 10.0 mi WNW 3.5 mph - N/A   Clear
4:09 AM 58.3 °F 56.8 °F 95% 29.82 in 10.0 mi NW 5.8 mph - N/A   Clear
4:29 AM 59.2 °F 56.5 °F 91% 29.83 in 10.0 mi Calm Calm - N/A   Clear
4:49 AM 57.2 °F 55.4 °F 94% 29.83 in 10.0 mi West 4.6 mph - N/A   Clear
5:08 AM 56.8 °F 55.6 °F 96% 29.83 in 10.0 mi Calm Calm - N/A   Clear
5:29 AM 54.9 °F 54.0 °F 97% 29.82 in 10.0 mi Calm Calm - N/A   Clear
5:49 AM 54.1 °F 53.6 °F 98% 29.84 in 10.0 mi Calm Calm - N/A   Clear
6:09 AM 54.3 °F 53.8 °F 98% 29.84 in 10.0 mi Calm Calm - N/A   Clear
6:29 AM 55.6 °F 54.7 °F 97% 29.86 in 10.0 mi West 6.9 mph - N/A   Clear
6:48 AM 57.0 °F 54.3 °F 91% 29.87 in 10.0 mi Calm Calm - N/A   Clear
7:09 AM 56.7 °F 54.7 °F 93% 29.86 in 10.0 mi Calm Calm - N/A   Scattered Clouds
7:29 AM 57.2 °F 55.0 °F 92% 29.86 in 10.0 mi NW 3.5 mph - N/A   Clear
7:49 AM 59.2 °F 56.8 °F 92% 29.85 in 10.0 mi Calm Calm - N/A   Clear
8:08 AM 61.5 °F 59.2 °F 92% 29.85 in 10.0 mi Calm Calm - N/A   Clear
8:28 AM 67.8 °F 57.9 °F 71% 29.84 in 10.0 mi North 3.5 mph - N/A   Clear
8:49 AM 69.3 °F 55.8 °F 62% 29.84 in 10.0 mi NE 8.1 mph - N/A   Clear
9:09 AM 69.3 °F 55.4 °F 61% 29.84 in 10.0 mi NNE 9.2 mph - N/A   Clear
9:29 AM 70.2 °F 56.1 °F 61% 29.85 in 10.0 mi North 8.1 mph - N/A   Clear
9:49 AM 71.8 °F 56.8 °F 59% 29.86 in 10.0 mi North 6.9 mph - N/A   Clear
10:09 AM 73.8 °F 57.4 °F 56% 29.86 in 10.0 mi North 5.8 mph - N/A   Clear
10:29 AM 74.3 °F 56.8 °F 54% 29.86 in 10.0 mi NNW 4.6 mph - N/A   Clear
10:49 AM 74.3 °F 57.4 °F 55% 29.87 in 10.0 mi NW 8.1 mph - N/A   Clear
11:09 AM 74.3 °F 56.7 °F 54% 29.86 in 10.0 mi WNW 11.5 mph - N/A   Clear
11:29 AM 75.0 °F 56.5 °F 52% 29.86 in 10.0 mi NW 5.8 mph - N/A   Clear
11:49 AM 77.0 °F 57.0 °F 50% 29.86 in 10.0 mi NNW 6.9 mph - N/A   Clear
12:09 PM 77.0 °F 55.9 °F 48% 29.86 in 10.0 mi West 10.4 mph - N/A   Clear
12:29 PM 77.0 °F 56.1 °F 48% 29.86 in 10.0 mi WNW 9.2 mph - N/A   Clear
12:49 PM 77.2 °F 54.9 °F 46% 29.86 in 10.0 mi WNW 8.1 mph 18.4 mph N/A   Clear
1:07 PM 79.3 °F 56.1 °F 45% 29.86 in 10.0 mi West 12.7 mph 18.4 mph N/A   Clear
1:29 PM 79.3 °F 55.8 °F 44% 29.85 in 10.0 mi West 13.8 mph 18.4 mph N/A   Clear
1:45 PM 79.3 °F 55.0 °F 43% 29.86 in 10.0 mi West 12.7 mph 19.6 mph N/A   Clear
2:10 PM 78.8 °F 53.6 °F 42% 29.86 in 10.0 mi WNW 12.7 mph 21.9 mph N/A   Clear
2:30 PM 78.8 °F 53.6 °F 42% 29.85 in 10.0 mi NW 11.5 mph - N/A   Clear
2:35 PM 79.3 °F 54.0 °F 41% 29.86 in 10.0 mi West 10.4 mph 18.4 mph N/A   Clear
2:47 PM 79.3 °F 53.6 °F 41% 29.85 in 10.0 mi NW 16.1 mph 24.2 mph N/A   Clear
3:09 PM 79.3 °F 51.6 °F 38% 29.86 in 10.0 mi West 13.8 mph 19.6 mph N/A   Clear
3:29 PM 79.3 °F 50.2 °F 36% 29.86 in 10.0 mi WNW 15.0 mph 19.6 mph N/A   Clear
3:47 PM 77.0 °F 47.3 °F 35% 29.87 in 10.0 mi West 13.8 mph 26.5 mph N/A   Clear
4:09 PM 77.2 °F 46.6 °F 34% 29.87 in 10.0 mi WNW 11.5 mph 19.6 mph N/A   Clear
4:29 PM 77.0 °F 45.3 °F 32% 29.87 in 10.0 mi West 16.1 mph 19.6 mph N/A   Clear
4:49 PM 77.0 °F 47.1 °F 35% 29.88 in 10.0 mi West 11.5 mph 16.1 mph N/A   Clear
5:09 PM 77.0 °F 47.1 °F 35% 29.88 in 10.0 mi West 12.7 mph 17.3 mph N/A   Clear
5:29 PM 77.0 °F 48.4 °F 36% 29.88 in 10.0 mi West 11.5 mph - N/A   Clear
5:49 PM 75.4 °F 47.5 °F 37% 29.88 in 10.0 mi WNW 11.5 mph 19.6 mph N/A   Clear
6:09 PM 74.3 °F 47.7 °F 39% 29.88 in 10.0 mi West 9.2 mph - N/A   Clear
6:29 PM 74.3 °F 48.4 °F 40% 29.88 in 10.0 mi WNW 8.1 mph - N/A   Clear
7:09 PM 71.4 °F 49.8 °F 46% 29.89 in 10.0 mi WNW 5.8 mph - N/A   Clear
7:29 PM 69.3 °F 51.8 °F 54% 29.90 in 10.0 mi West 4.6 mph - N/A   Clear
7:49 PM 65.3 °F 51.3 °F 60% 29.90 in 10.0 mi West 5.8 mph - N/A   Clear
8:09 PM 64.4 °F 50.2 °F 60% 29.90 in 10.0 mi WNW 5.8 mph - N/A   Clear
8:29 PM 63.3 °F 50.0 °F 62% 29.91 in 10.0 mi WNW 5.8 mph - N/A   Clear
8:49 PM 61.9 °F 49.6 °F 64% 29.91 in 10.0 mi West 3.5 mph - N/A   Clear
9:09 PM 59.4 °F 50.0 °F 71% 29.92 in 10.0 mi WNW 4.6 mph - N/A   Clear
9:28 PM 59.2 °F 50.9 °F 74% 29.92 in 10.0 mi West 4.6 mph - N/A   Clear
9:49 PM 56.8 °F 50.0 °F 78% 29.92 in 10.0 mi West 3.5 mph - N/A   Clear
10:09 PM 56.7 °F 50.9 °F 81% 29.92 in 10.0 mi Calm Calm - N/A   Clear
10:29 PM 56.7 °F 50.2 °F 79% 29.93 in 10.0 mi Calm Calm - N/A   Clear
10:49 PM 54.1 °F 50.5 °F 88% 29.92 in 10.0 mi WNW 4.6 mph - N/A   Clear
11:09 PM 54.1 °F 50.4 °F 87% 29.93 in 10.0 mi Calm Calm - N/A   Clear
11:29 PM 54.1 °F 50.9 °F 89% 29.93 in 10.0 mi Calm Calm - N/A   Clear
11:49 PM 54.1 °F 51.1 °F 89% 29.93 in 10.0 mi Calm Calm - N/A   Clear